• In Romania
  • List of Countries
  • For 7 days
  • Water Temperature
  • Satellite Maps
  • Weather Map
  • Weather Widgets
  • user-avatar
    Login

    Hourly Weather Escaldes-Engordany

    Today, 26 June, Monday

    Time Temperature Precipitation Wind Pressure Humidity
    00:00 +14°C° 0 mm 1 mps 639 mmHg 90%
    01:00 +14°C° 0.1 mm 1 mps 639 mmHg 88%
    02:00 +13°C° 0.1 mm 1 mps 638 mmHg 87%
    03:00 +13°C° 0.1 mm 1 mps 638 mmHg 86%
    04:00 +14°C° 0 mm 1 mps 638 mmHg 79%
    05:00 +15°C° 0 mm 1 mps 638 mmHg 73%
    06:00 +16°C° 0 mm 2 mps 639 mmHg 66%
    07:00 +18°C° 0 mm 2 mps 639 mmHg 58%
    08:00 +20°C° 0 mm 2 mps 639 mmHg 50%
    09:00 +23°C° 0 mm 2 mps 640 mmHg 42%
    10:00 +22°C° 0.1 mm 3 mps 640 mmHg 41%
    11:00 +24°C° 0.1 mm 3 mps 640 mmHg 40%
    12:00 +23°C° 0 mm 4 mps 640 mmHg 38%
    13:00 +23°C° 0.2 mm 4 mps 640 mmHg 40%
    14:00 +22°C° 0.2 mm 4 mps 640 mmHg 43%
    15:00 +22°C° 0.2 mm 3 mps 640 mmHg 46%
    16:00 +21°C° 0.4 mm 3 mps 639 mmHg 50%
    17:00 +20°C° 0.4 mm 2 mps 639 mmHg 55%
    18:00 +20°C° 0.4 mm 2 mps 639 mmHg 59%
    19:00 +18°C° 0.1 mm 1 mps 638 mmHg 67%
    20:00 +15°C° 0.1 mm 1 mps 637 mmHg 75%
    21:00 +11°C° 0.1 mm 0 mps 636 mmHg 83%
    22:00 +11°C° 0 mm 0 mps 636 mmHg 84%
    23:00 +10°C° 0 mm 0 mps 636 mmHg 84%

    Tomorrow, 27 June, Tuesday

    Time Temperature Precipitation Wind Pressure Humidity
    00:00 +10°C° 0 mm 0 mps 636 mmHg 85%
    01:00 +11°C° 0 mm 1 mps 636 mmHg 84%
    02:00 +11°C° 0 mm 1 mps 636 mmHg 83%
    03:00 +10°C° 0 mm 1 mps 635 mmHg 82%
    04:00 +12°C° 0 mm 1 mps 636 mmHg 77%
    05:00 +14°C° 0 mm 1 mps 637 mmHg 73%
    06:00 +15°C° 0 mm 1 mps 637 mmHg 68%
    07:00 +18°C° 0 mm 2 mps 638 mmHg 60%
    08:00 +20°C° 0 mm 2 mps 639 mmHg 51%
    09:00 +22°C° 0 mm 3 mps 639 mmHg 43%
    10:00 +24°C° 0 mm 3 mps 639 mmHg 39%
    11:00 +25°C° 0 mm 4 mps 639 mmHg 35%
    12:00 +26°C° 0 mm 4 mps 639 mmHg 31%
    13:00 +26°C° 0.2 mm 5 mps 638 mmHg 37%
    14:00 +25°C° 0.2 mm 5 mps 638 mmHg 42%
    15:00 +23°C° 0.2 mm 5 mps 637 mmHg 48%
    16:00 +22°C° 0.6 mm 4 mps 636 mmHg 52%
    17:00 +21°C° 0.6 mm 3 mps 636 mmHg 57%
    18:00 +20°C° 0.6 mm 3 mps 635 mmHg 61%
    19:00 +17°C° 0.5 mm 2 mps 635 mmHg 66%
    20:00 +15°C° 0.5 mm 2 mps 634 mmHg 70%
    21:00 +13°C° 0.5 mm 2 mps 634 mmHg 75%
    22:00 +12°C° 0.2 mm 2 mps 634 mmHg 78%
    23:00 +12°C° 0.2 mm 1 mps 634 mmHg 80%

    Day after tomorrow, 28 June, Wednesday

    Time Temperature Precipitation Wind Pressure Humidity
    00:00 +11°C° 0.2 mm 1 mps 634 mmHg 83%
    01:00 +11°C° 0 mm 1 mps 633 mmHg 85%
    02:00 +10°C° 0 mm 1 mps 633 mmHg 86%
    03:00 +10°C° 0 mm 1 mps 633 mmHg 88%
    04:00 +11°C° 0 mm 1 mps 633 mmHg 84%
    05:00 +12°C° 0 mm 1 mps 633 mmHg 81%
    06:00 +13°C° 0 mm 1 mps 634 mmHg 77%
    07:00 +14°C° 0.2 mm 2 mps 634 mmHg 73%
    08:00 +14°C° 0.2 mm 3 mps 634 mmHg 69%
    09:00 +16°C° 0.2 mm 3 mps 635 mmHg 64%
    10:00 +16°C° 0.4 mm 3 mps 635 mmHg 62%
    11:00 +17°C° 0.4 mm 4 mps 634 mmHg 59%
    12:00 +17°C° 0.4 mm 4 mps 634 mmHg 56%
    13:00 +17°C° 0.6 mm 4 mps 634 mmHg 56%
    14:00 +17°C° 0.6 mm 4 mps 634 mmHg 57%
    15:00 +18°C° 0.6 mm 4 mps 634 mmHg 57%
    16:00 +17°C° 0.8 mm 4 mps 634 mmHg 60%
    17:00 +16°C° 0.8 mm 3 mps 633 mmHg 63%
    18:00 +14°C° 0.8 mm 3 mps 633 mmHg 66%
    19:00 +12°C° 0.5 mm 3 mps 633 mmHg 71%
    20:00 +12°C° 0.5 mm 2 mps 633 mmHg 76%
    21:00 +9°C° 0.5 mm 2 mps 633 mmHg 81%
    22:00 +8°C° 0.1 mm 2 mps 633 mmHg 83%
    23:00 +8°C° 0.1 mm 2 mps 633 mmHg 85%

    29 June, Thursday

    Time Temperature Precipitation Wind Pressure Humidity
    00:00 +7°C° 0.1 mm 2 mps 633 mmHg 87%
    01:00 +7°C° 0 mm 2 mps 633 mmHg 89%
    02:00 +6°C° 0 mm 2 mps 633 mmHg 90%
    03:00 +7°C° 0 mm 1 mps 633 mmHg 91%
    04:00 +7°C° 0 mm 1 mps 633 mmHg 88%
    05:00 +8°C° 0 mm 1 mps 634 mmHg 84%
    06:00 +9°C° 0 mm 1 mps 634 mmHg 81%
    07:00 +10°C° 0 mm 2 mps 635 mmHg 73%
    08:00 +12°C° 0 mm 2 mps 636 mmHg 65%
    09:00 +14°C° 0 mm 2 mps 636 mmHg 57%
    10:00 +14°C° 0.1 mm 2 mps 636 mmHg 54%
    11:00 +14°C° 0.1 mm 3 mps 637 mmHg 52%
    12:00 +14°C° 0.1 mm 3 mps 637 mmHg 49%
    13:00 +15°C° 0.3 mm 4 mps 637 mmHg 48%
    14:00 +15°C° 0.3 mm 4 mps 637 mmHg 47%
    15:00 +15°C° 0.3 mm 4 mps 637 mmHg 45%
    16:00 +14°C° 0.3 mm 4 mps 637 mmHg 49%
    17:00 +13°C° 0.3 mm 3 mps 636 mmHg 53%
    18:00 +13°C° 0.3 mm 2 mps 636 mmHg 56%
    19:00 +10°C° 0.1 mm 2 mps 636 mmHg 65%
    20:00 +9°C° 0.1 mm 1 mps 635 mmHg 74%
    21:00 +6°C° 0.1 mm 1 mps 635 mmHg 82%
    22:00 +6°C° 0 mm 1 mps 635 mmHg 83%
    23:00 +6°C° 0 mm 1 mps 635 mmHg 83%

    30 June, Friday

    Time Temperature Precipitation Wind Pressure Humidity
    00:00 +5°C° 0 mm 1 mps 635 mmHg 83%
    01:00 +5°C° 0 mm 1 mps 635 mmHg 83%
    02:00 +4°C° 0 mm 1 mps 634 mmHg 82%
    03:00 +4°C° 0 mm 1 mps 634 mmHg 82%
    04:00 +5°C° 0 mm 1 mps 635 mmHg 76%
    05:00 +7°C° 0 mm 1 mps 636 mmHg 70%
    06:00 +9°C° 0 mm 1 mps 636 mmHg 64%
    07:00 +9°C° 0 mm 2 mps 637 mmHg 56%
    08:00 +11°C° 0 mm 3 mps 638 mmHg 48%
    09:00 +13°C° 0 mm 3 mps 639 mmHg 41%
    10:00 +14°C° 0 mm 4 mps 639 mmHg 37%
    11:00 +17°C° 0 mm 4 mps 639 mmHg 33%
    12:00 +18°C° 0 mm 4 mps 640 mmHg 30%
    13:00 +18°C° 0.1 mm 4 mps 639 mmHg 33%
    14:00 +17°C° 0.1 mm 3 mps 639 mmHg 37%
    15:00 +17°C° 0.1 mm 3 mps 639 mmHg 40%
    16:00 +16°C° 0.1 mm 2 mps 639 mmHg 47%
    17:00 +15°C° 0.1 mm 2 mps 639 mmHg 54%
    18:00 +14°C° 0.1 mm 2 mps 638 mmHg 61%
    19:00 +12°C° 0.1 mm 2 mps 638 mmHg 69%
    20:00 +9°C° 0.1 mm 2 mps 638 mmHg 77%
    21:00 +7°C° 0.1 mm 2 mps 638 mmHg 85%
    22:00 +7°C° 0.1 mm 2 mps 638 mmHg 85%
    23:00 +7°C° 0.1 mm 2 mps 638 mmHg 85%

    1 July, Saturday

    Time Temperature Precipitation Wind Pressure Humidity
    00:00 +7°C° 0.1 mm 2 mps 638 mmHg 85%
    01:00 +6°C° 0 mm 2 mps 638 mmHg 86%
    02:00 +6°C° 0 mm 2 mps 638 mmHg 88%
    03:00 +6°C° 0 mm 2 mps 638 mmHg 89%
    04:00 +7°C° 0 mm 2 mps 639 mmHg 86%
    05:00 +7°C° 0 mm 2 mps 639 mmHg 83%
    06:00 +8°C° 0 mm 2 mps 640 mmHg 80%
    07:00 +10°C° 0 mm 2 mps 641 mmHg 73%
    08:00 +11°C° 0 mm 3 mps 642 mmHg 67%
    09:00 +12°C° 0 mm 3 mps 642 mmHg 60%
    10:00 +13°C° 0.1 mm 3 mps 643 mmHg 57%
    11:00 +14°C° 0.1 mm 3 mps 643 mmHg 54%
    12:00 +16°C° 0.1 mm 3 mps 644 mmHg 50%
    13:00 +16°C° 0.1 mm 3 mps 644 mmHg 49%
    14:00 +16°C° 0.1 mm 3 mps 644 mmHg 49%
    15:00 +16°C° 0.1 mm 3 mps 644 mmHg 48%
    16:00 +16°C° 0.1 mm 3 mps 644 mmHg 53%
    17:00 +14°C° 0.1 mm 3 mps 644 mmHg 58%
    18:00 +13°C° 0.1 mm 3 mps 644 mmHg 62%
    19:00 +11°C° 0.1 mm 3 mps 643 mmHg 70%
    20:00 +9°C° 0.1 mm 3 mps 643 mmHg 78%
    21:00 +7°C° 0.1 mm 3 mps 643 mmHg 86%
    22:00 +7°C° 0 mm 3 mps 643 mmHg 86%
    23:00 +5°C° 0 mm 3 mps 643 mmHg 86%
    Show more